Starlink 32833

operational
NORAD ID: 62873 Int'l Des: 2025-022 Owner: SPXS Country: US Constellation: starlink
LEOCIRCULAR

Starlink 32833について

説明を読み込み中...

リアルタイム位置

3D地球を読み込み中...

次回通過

高度履歴

Altitude vs Time

uPlot chart will show altitude changes over time

軌道要素

1 62873U 25022V 25306.47196529 .00015469 00000-0 53318-3 0 9994
2 62873 53.1618 0.4495 0001517 78.1837 281.9333 15.30208625 42425
Epoch: Nov 2, 2025 • Age: 18 hours

現在のステータス

高度 491.0 km
速度 7.62 km/s
衛星直下点 -44.28°S, 96.53°E
打ち上げ日 Feb 2, 2025
運用期間 0.7 years
タイプ internet

技術仕様

分類 Payload
質量 730.00 kg
乾燥質量 700.00 kg
総質量 730.00 kg
長さ 0.30 m
直径 4.10 m
スパン 29.00 m
形状 Box + pan
製造者 SPXS
バスタイプ Starlink V2M
フェーズステータス In Orbit
所有者/国 SPXS/US

大規模コンステレーション

Loading constellations...